Regional Weather Roundup
Issued by NWS

Home | Current Version | Previous Version | Graphics & Text | Print | Product List | Glossary On
Versions: 1 2 3 4 5 6 7 8 9 10 11 12 13 14 15 16 17 18 19 20 21 22 23 24 25 26 27 28 29 30 31 32 33 34 35 36 37 38 39 40 41 42 43 44 45 46 47 48 49 50
000
ASUS43 KOAX 261002
RWRNE

WEATHER ROUNDUP FOR NEBRASKA
NATIONAL WEATHER SERVICE OMAHA NE
500 AM CDT FRI MAY 26 2017

NOTES: SATELLITE DATA IS BEING USED TO AUGMENT CLOUD COVER ABOVE
       12000 FEET.
       "FAIR" INDICATES FEW OR NO CLOUDS BELOW 12,000 FEET WITH NO
       SIGNIFICANT WEATHER AND/OR OBSTRUCTIONS TO VISIBILITY.

  * THESE STATIONS DO NOT REPORT WEATHER SUCH AS RAIN...SNOW OR FOG.

NEZ001>004-019>022-054>056-261100-
NEBRASKA PANHANDLE

CITY           SKY/WX    TMP DP  RH WIND       PRES   REMARKS
SCOTTSBLUFF    CLEAR     42  35  76 NW6       29.93S
ALLIANCE       CLEAR     41  38  89 W3        29.90R
CHADRON        PTCLDY    46  38  73 W14       29.90R
SIDNEY         CLOUDY    43  41  93 NW8       29.93R
$$

NEZ057>060-069>072-079>082-261100-
SOUTHWEST NEBRASKA

CITY           SKY/WX    TMP DP  RH WIND       PRES   REMARKS
NORTH PLATTE   PTCLDY    53  46  77 N9        29.83S
IMPERIAL       CLOUDY    55  50  83 NW10      29.84R
LEXINGTON      MOCLDY    60  52  75 N18       29.78R
MCCOOK         PTCLDY    56  54  93 NW9       29.78R
$$

NEZ005>010-023>029-035>040-094-261100-
NORTH CENTRAL NEBRASKA

CITY           SKY/WX    TMP DP  RH WIND       PRES   REMARKS
VALENTINE      PTCLDY    47  39  74 NW7       29.84R
BROKEN BOW     MOCLDY    56  44  64 N16       29.81R
ORD            MOCLDY    56  43  61 NW15      29.77R
$$

NEZ041-046>049-061>064-073>077-083>087-261100-
SOUTH CENTRAL NEBRASKA

CITY           SKY/WX    TMP DP  RH WIND       PRES   REMARKS
GRAND ISLAND   PTCLDY    60  55  83 NW8       29.71R
HASTINGS       CLOUDY    60  54  80 NW9       29.72R
KEARNEY *      PTCLDY    61  52  72 NW9       29.74R
$$

NEZ011>018-030>034-042>045-261100-
NORTHEAST NEBRASKA

CITY           SKY/WX    TMP DP  RH WIND       PRES   REMARKS
NORFOLK        CLOUDY    57  52  83 NW8       29.68R
ALBION         CLOUDY    61  52  73 N10       29.71R
BLAIR          CLOUDY    64  56  77 E5        29.64S
TEKAMAH        CLOUDY    59  55  87 CALM      29.64S
$$

NEZ050>053-065>068-078-088>093-261100-
SOUTHEAST NEBRASKA

CITY           SKY/WX    TMP DP  RH WIND       PRES   REMARKS
LINCOLN        CLOUDY    64  57  78 W8        29.67R
OMAHA EPPLEY   CLOUDY    65  55  70 SE6       29.63F
FALLS CITY     CLOUDY    59  57  93 W8        29.63R
$$

NEZ044-045-051>053-067-261100-
OMAHA AREA

CITY           SKY/WX    TMP DP  RH WIND       PRES   REMARKS
OMAHA EPPLEY   CLOUDY    65  55  70 SE6       29.63F
BLAIR          CLOUDY    64  56  77 E5        29.64S
OFFUTT AFB     CLOUDY    61  57  85 E6        29.63S
WAHOO          FAIR      60  57  89 CALM      29.65R
$$




USA.gov is the U.S. government's official web portal to all federal, state and local government web resources and services.